Weather Roundup
Issued by NWS

Home | Current Version | Previous Version | Text Only | Print | Product List | Glossary On
Versions: 1 2 3 4 5 6 7 8 9 10 11 12 13 14 15 16 17 18 19 20 21 22 23 24 25 26 27 28 29 30 31 32 33 34 35 36 37 38 39 40 41 42 43 44 45 46 47 48 49 50
000
NZUS93 KARX 172310
HRRWXR

CURRENT HOURLY OBSERVATIONS ACROSS
MUCH OF THE UPPER MISSISSIPPI VALLEY
NATIONAL WEATHER SERVICE LA CROSSE WI
600 PM CDT WED SEP 17 2014


...SOUTHEAST MINNESOTA...


CITY           SKY/WX    TMP DP  RH WIND       PRES   REMARKS
ROCHESTER      MOSUNNY   70  50  49 CALM      29.97S
ROCHESTER/MAYO FAIR      72  46  39 NE3       29.96S
WINONA         MOSUNNY   70  54  56 CALM      29.96S
AUSTIN         MOSUNNY   72  52  49 CALM      29.95S
ALBERT LEA     MOSUNNY   73  54  49 E7        29.95R
DODGE CENTER   MOSUNNY   72  52  49 E3        29.96S
PRESTON        SUNNY     68  55  62 CALM      29.97S
OWATONNA       SUNNY     72  52  49 NE3       29.95S
FARIBAULT      SUNNY     75  46  35 CALM      29.95S
$$

...ELSEWHERE IN MINNESOTA...


CITY           SKY/WX    TMP DP  RH WIND       PRES   REMARKS
MINNEAPOLIS    MOSUNNY   71  52  50 E7        29.94S
INTNL FALLS      N/A     50  40  68 NE7       30.08S
DULUTH         CLOUDY    46  40  79 E16       30.05R
RED WING       SUNNY     72  54  53 SE3       29.94R
REDWOOD FALLS  MOSUNNY   77  50  38 CALM      29.93S
MANKATO        SUNNY     73  52  46 NE5       29.94S
WORTHINGTON    SUNNY     73  55  53 E5        29.94R
FAIRMONT       MOSUNNY   75  52  43 NE5       29.93S
$$

...SOUTHWEST WISCONSIN...


CITY           SKY/WX    TMP DP  RH WIND       PRES   REMARKS
LA CROSSE      PTSUNNY   68  55  63 SW3       29.96S
PRAIRIE DU CHI MOSUNNY   69  48  46 CALM      29.96S
BOSCOBEL       SUNNY     71  51  49 NW3       29.96S
LONE ROCK      SUNNY     72  49  44 CALM      29.97R
PLATTEVILLE    SUNNY     68  52  57 CALM      29.98S
FORT MC COY    CLOUDY    69  47  46 NW3       29.98S
CAMP DOUGLAS   PTSUNNY   68  52  56 CALM      29.97S
VIROQUA        CLOUDY    66  49  55 CALM      29.98S
WIS DELLS      SUNNY     65  48  53 CALM      29.97S
$$

...ELSEWHERE IN WISCONSIN...


CITY           SKY/WX    TMP DP  RH WIND       PRES   REMARKS
MILWAUKEE      PTCLDY    62  48  60 SE14      29.98R
MADISON        MOSUNNY   67  50  54 CALM      29.97S
GREEN BAY      CLEAR     68  51  54 SW5       29.94F
EAU CLAIRE     MOSUNNY   69  52  54 CALM      29.95S
BLACK RVR FLS  FAIR      70  49  48 W3        29.96S
MEDFORD        MOSUNNY   64  51  62 CALM      29.97R
WAUSAU         MOSUNNY   67  50  54 W7        29.95S
WIS RAPIDS     CLOUDY    65  54  67 S5        29.98S
MARSHFIELD     SUNNY     67  51  56 W6        29.97R
RICE LAKE      SUNNY     70  49  47 N3        29.98R
$$

...NORTHEAST IOWA...


CITY           SKY/WX    TMP DP  RH WIND       PRES   REMARKS
WATERLOO       SUNNY     71  49  45 CALM      29.94S
DUBUQUE        SUNNY     67  50  54 CALM      29.97S
DECORAH        SUNNY     68  52  56 CALM      29.96S
MASON CITY     MOSUNNY   72  52  49 E3        29.96R
CHARLES CITY   SUNNY     70  50  49 CALM      29.96S
OELWEIN        SUNNY     70  48  46 S5        29.96S
$$

...ELSEWHERE IN IOWA...


CITY           SKY/WX    TMP DP  RH WIND       PRES   REMARKS
DES MOINES     MOSUNNY   74  57  55 E5        29.93R
IOWA CITY      SUNNY     68  57  68 SE5       29.96R
FORT DODGE     CLOUDY    73  54  49 SE3       29.94S
MARSHALLTOWN   SUNNY     69  55  60 E5        29.94R
CEDAR RAPIDS   MOSUNNY   68  55  63 S3        29.95R
$$

...NORTHERN ILLINOIS...


CITY           SKY/WX    TMP DP  RH WIND       PRES   REMARKS
CHICAGO-OHARE  CLEAR     70  44  39 E13       29.97S
DUPAGE         SUNNY     69  49  48 E3        29.97S
CHICAGO-MIDWAY CLEAR     67  47  48 E10       29.97S
MOLINE         SUNNY     70  50  49 CALM      29.95S
ROCKFORD       MOSUNNY   71  50  47 CALM      29.98S
STERLING       SUNNY     70  52  52 CALM      29.96S
PEORIA         CLOUDY    67  51  56 SE3       29.96F
$$

NOTE: "FAIR" INDICATES FEW OR NO CLOUDS BELOW 12,000 FEET WITH NO
SIGNIFICANT WEATHER AND/OR OBSTRUCTIONS TO VISIBILITY. WIND
SPEEDS ARE IN MILES-PER-HOUR.



USA.gov is the U.S. government's official web portal to all federal, state and local government web resources and services.